WJA732 CYCG-CYYC

Flight info

Callsign WJA732
Flight time 0h 40m
Altitude 31000
Route LOCAN DCT MENBO DCT NORET IGVEP7
Aircraft B737/M-SDE2E3FGHIRWXY/LB1

Departure

Time 2026-04-25 00:58
Airport Castlegar/West Kootenay Regional Airport (CYCG)

Arrival

Time 2026-04-25 01:39
Airport Calgary International Airport (CYYC)
Time Latitude Longitude Altitude Speed Heading
2026-04-25 00:50 49.30088 -117.63561 1609 ft 0 kts 212°
2026-04-25 00:52 49.30050 -117.63565 1618 ft 8 kts 173°
2026-04-25 00:52 49.29997 -117.63550 1612 ft 8 kts 167°
2026-04-25 00:53 49.29936 -117.63530 1619 ft 10 kts 169°
2026-04-25 00:53 49.29851 -117.63503 1619 ft 15 kts 166°
2026-04-25 00:53 49.29751 -117.63475 1612 ft 14 kts 169°
2026-04-25 00:53 49.29663 -117.63436 1614 ft 12 kts 139°
2026-04-25 00:54 49.29641 -117.63330 1611 ft 10 kts 88°
2026-04-25 00:54 49.29621 -117.63264 1618 ft 6 kts 152°
2026-04-25 00:54 49.29578 -117.63250 1619 ft 9 kts 169°
2026-04-25 00:54 49.29490 -117.63228 1614 ft 17 kts 173°
2026-04-25 00:55 49.29353 -117.63190 1612 ft 22 kts 173°
2026-04-25 00:55 49.29208 -117.63153 1610 ft 21 kts 167°
2026-04-25 00:55 49.29105 -117.63108 1612 ft 13 kts 163°
2026-04-25 00:55 49.29020 -117.63075 1611 ft 12 kts 171°
2026-04-25 00:56 49.28945 -117.63062 1612 ft 7 kts 184°
2026-04-25 00:56 49.28928 -117.63055 1614 ft 0 kts 136°
2026-04-25 00:56 49.28928 -117.63042 1617 ft 4 kts 76°
2026-04-25 00:56 49.28947 -117.63043 1610 ft 2 kts 331°
2026-04-25 00:57 49.28957 -117.63054 1612 ft 2 kts 325°
2026-04-25 00:57 49.28969 -117.63067 1614 ft 3 kts 329°
2026-04-25 00:57 49.29037 -117.63088 1613 ft 38 kts 348°
2026-04-25 00:57 49.29637 -117.63266 1612 ft 134 kts 349°
2026-04-25 00:58 49.30719 -117.63557 2184 ft 170 kts
2026-04-25 00:58 49.31883 -117.62956 3228 ft 194 kts 39°
2026-04-25 00:58 49.32900 -117.61548 4111 ft 207 kts 39°
2026-04-25 00:58 49.34100 -117.60070 4494 ft 231 kts 36°
2026-04-25 00:59 49.35435 -117.58658 5231 ft 242 kts 23°
2026-04-25 00:59 49.37203 -117.58064 5613 ft 277 kts
2026-04-25 00:59 49.39077 -117.57714 7237 ft 261 kts
2026-04-25 00:59 49.40837 -117.57368 8728 ft 253 kts
2026-04-25 01:00 49.42570 -117.57020 9860 ft 257 kts
2026-04-25 01:00 49.44393 -117.56643 10595 ft 274 kts
2026-04-25 01:00 49.46381 -117.56225 10912 ft 303 kts 12°
2026-04-25 01:00 49.48541 -117.55751 11508 ft 319 kts
2026-04-25 01:01 49.50684 -117.54801 12560 ft 323 kts 23°
2026-04-25 01:01 49.52619 -117.53003 13634 ft 329 kts 37°
2026-04-25 01:01 49.54336 -117.50583 14445 ft 338 kts 42°
2026-04-25 01:01 49.55994 -117.47984 15339 ft 343 kts 44°
2026-04-25 01:02 49.57632 -117.45346 16178 ft 348 kts 44°
2026-04-25 01:02 49.59312 -117.42630 17122 ft 351 kts 44°
2026-04-25 01:02 49.61011 -117.39897 18042 ft 355 kts 44°
2026-04-25 01:02 49.62739 -117.37133 18812 ft 361 kts 44°
2026-04-25 01:03 49.64487 -117.34345 19684 ft 360 kts 44°
2026-04-25 01:03 49.66222 -117.31587 20775 ft 355 kts 44°
2026-04-25 01:03 49.67933 -117.28870 21877 ft 350 kts 43°
2026-04-25 01:03 49.69624 -117.26188 22948 ft 346 kts 43°
2026-04-25 01:04 49.71307 -117.23518 23861 ft 347 kts 43°
2026-04-25 01:04 49.72991 -117.20847 24605 ft 347 kts 43°
2026-04-25 01:04 49.74674 -117.18178 24935 ft 343 kts 43°
2026-04-25 01:04 49.76336 -117.15538 25115 ft 343 kts 43°
2026-04-25 01:05 49.78018 -117.12863 25088 ft 347 kts 43°
2026-04-25 01:05 49.79676 -117.10221 25109 ft 346 kts 43°
2026-04-25 01:05 49.81353 -117.07546 25116 ft 344 kts 43°
2026-04-25 01:05 49.83026 -117.04875 25145 ft 347 kts 43°
2026-04-25 01:06 49.84740 -117.02139 25254 ft 362 kts 43°
2026-04-25 01:06 49.86523 -116.99294 25644 ft 372 kts 43°
2026-04-25 01:06 49.88335 -116.96390 26232 ft 376 kts 43°
2026-04-25 01:06 49.90148 -116.93479 27093 ft 372 kts 43°
2026-04-25 01:07 49.91940 -116.90597 28043 ft 368 kts 43°
2026-04-25 01:07 49.93683 -116.87792 28883 ft 365 kts 43°
2026-04-25 01:07 49.95443 -116.84958 29769 ft 360 kts 43°
2026-04-25 01:07 49.97183 -116.82152 30121 ft 359 kts 43°
2026-04-25 01:08 49.98916 -116.79355 30139 ft 359 kts 42°
2026-04-25 01:08 50.02384 -116.73761 30164 ft 359 kts 43°
2026-04-25 01:09 50.05850 -116.68151 30158 ft 359 kts 43°
2026-04-25 01:09 50.09289 -116.62570 30187 ft 357 kts 43°
2026-04-25 01:10 50.12737 -116.56963 30186 ft 358 kts 43°
2026-04-25 01:10 50.16188 -116.51340 30171 ft 359 kts 43°
2026-04-25 01:11 50.19658 -116.45672 30195 ft 366 kts 43°
2026-04-25 01:11 50.23173 -116.39920 30308 ft 368 kts 43°
2026-04-25 01:11 50.24948 -116.37007 30740 ft 370 kts 43°
2026-04-25 01:12 50.26723 -116.34089 31200 ft 371 kts 43°
2026-04-25 01:12 50.30268 -116.28261 31177 ft 368 kts 43°
2026-04-25 01:13 50.33774 -116.22480 31207 ft 366 kts 43°
2026-04-25 01:13 50.37263 -116.16663 31171 ft 367 kts 47°
2026-04-25 01:13 50.38755 -116.13372 30938 ft 374 kts 55°
2026-04-25 01:14 50.39916 -116.09721 30615 ft 375 kts 64°
2026-04-25 01:14 50.40805 -116.05869 30188 ft 374 kts 66°
2026-04-25 01:14 50.41641 -116.02018 29689 ft 371 kts 66°
2026-04-25 01:14 50.42459 -115.98206 29219 ft 366 kts 66°
2026-04-25 01:15 50.43261 -115.94488 28784 ft 362 kts 66°
2026-04-25 01:15 50.44066 -115.90782 28344 ft 357 kts 66°
2026-04-25 01:15 50.44868 -115.87115 27902 ft 353 kts 66°
2026-04-25 01:15 50.45665 -115.83486 27469 ft 350 kts 66°
2026-04-25 01:16 50.46457 -115.79884 27018 ft 348 kts 66°
2026-04-25 01:16 50.47244 -115.76302 26585 ft 345 kts 66°
2026-04-25 01:16 50.48026 -115.72736 26156 ft 344 kts 66°
2026-04-25 01:16 50.48794 -115.69231 25721 ft 342 kts 66°
2026-04-25 01:17 50.49565 -115.65706 25294 ft 340 kts 66°
2026-04-25 01:17 50.50081 -115.63342 25016 ft 338 kts 66°
2026-04-25 01:17 50.51087 -115.58726 24462 ft 336 kts 67°
2026-04-25 01:17 50.51842 -115.55259 24054 ft 335 kts 67°
2026-04-25 01:18 50.52594 -115.51798 23617 ft 335 kts 67°
2026-04-25 01:18 50.53344 -115.48338 23120 ft 334 kts 67°
2026-04-25 01:18 50.54087 -115.44898 22677 ft 330 kts 67°
2026-04-25 01:18 50.54823 -115.41474 22149 ft 330 kts 67°
2026-04-25 01:19 50.55553 -115.38069 21731 ft 326 kts 66°
2026-04-25 01:19 50.56275 -115.34696 21293 ft 324 kts 67°
2026-04-25 01:19 50.56985 -115.31365 20927 ft 319 kts 66°
2026-04-25 01:19 50.57691 -115.28053 20483 ft 318 kts 68°
2026-04-25 01:20 50.58390 -115.24770 20074 ft 314 kts 66°
2026-04-25 01:20 50.59076 -115.21538 19698 ft 310 kts 68°
2026-04-25 01:20 50.59756 -115.18339 19304 ft 308 kts 66°
2026-04-25 01:20 50.60435 -115.15139 18915 ft 308 kts 68°
2026-04-25 01:21 50.61106 -115.11981 18509 ft 307 kts 69°
2026-04-25 01:21 50.61778 -115.08801 18057 ft 306 kts 67°
2026-04-25 01:21 50.62448 -115.05626 17632 ft 303 kts 66°
2026-04-25 01:21 50.63108 -115.02503 17256 ft 299 kts 66°
2026-04-25 01:22 50.63763 -114.99406 16946 ft 295 kts 66°
2026-04-25 01:22 50.64412 -114.96336 16427 ft 295 kts 66°
2026-04-25 01:22 50.65056 -114.93281 16071 ft 292 kts 66°
2026-04-25 01:22 50.65697 -114.90246 15631 ft 290 kts 65°
2026-04-25 01:23 50.66320 -114.87289 15270 ft 286 kts 65°
2026-04-25 01:23 50.66945 -114.84327 14905 ft 283 kts 65°
2026-04-25 01:23 50.67558 -114.81365 14510 ft 284 kts 65°
2026-04-25 01:23 50.68174 -114.78402 14107 ft 284 kts 65°
2026-04-25 01:24 50.68787 -114.75445 13690 ft 283 kts 65°
2026-04-25 01:24 50.69393 -114.72517 13370 ft 276 kts 65°
2026-04-25 01:24 50.69971 -114.69705 13252 ft 264 kts 64°
2026-04-25 01:24 50.70529 -114.67013 13127 ft 251 kts 62°
2026-04-25 01:25 50.71383 -114.64798 12942 ft 231 kts 39°
2026-04-25 01:25 50.72517 -114.62980 12752 ft 238 kts 39°
2026-04-25 01:25 50.73696 -114.61068 12540 ft 247 kts 39°
2026-04-25 01:25 50.74900 -114.59103 12299 ft 250 kts 39°
2026-04-25 01:26 50.76108 -114.57127 12111 ft 250 kts 38°
2026-04-25 01:26 50.77315 -114.55152 11837 ft 248 kts 38°
2026-04-25 01:26 50.78491 -114.53225 11593 ft 244 kts 38°
2026-04-25 01:26 50.79676 -114.51284 11356 ft 242 kts 38°
2026-04-25 01:27 50.80831 -114.49394 11121 ft 241 kts 37°
2026-04-25 01:27 50.82036 -114.47535 10888 ft 242 kts 36°
2026-04-25 01:27 50.83256 -114.45695 10655 ft 243 kts 36°
2026-04-25 01:28 50.85717 -114.41979 10185 ft 245 kts 36°
2026-04-25 01:28 50.86935 -114.40130 9938 ft 246 kts 36°
2026-04-25 01:28 50.88167 -114.38254 9694 ft 246 kts 36°
2026-04-25 01:28 50.89397 -114.36379 9476 ft 243 kts 36°
2026-04-25 01:29 50.90201 -114.35150 9315 ft 240 kts 36°
2026-04-25 01:29 50.91215 -114.33041 9066 ft 249 kts 60°
2026-04-25 01:29 50.91449 -114.30301 8923 ft 257 kts 88°
2026-04-25 01:29 50.91073 -114.26579 8696 ft 260 kts 93°
2026-04-25 01:30 50.90740 -114.23753 8537 ft 261 kts 93°
2026-04-25 01:30 50.90514 -114.21843 8424 ft 261 kts 94°
2026-04-25 01:30 50.90179 -114.19065 8262 ft 257 kts 94°
2026-04-25 01:30 50.89838 -114.16307 8065 ft 252 kts 92°
2026-04-25 01:31 50.89485 -114.13608 7928 ft 246 kts 94°
2026-04-25 01:31 50.89136 -114.10986 7891 ft 243 kts 93°
2026-04-25 01:31 50.88776 -114.08357 7904 ft 245 kts 94°
2026-04-25 01:31 50.88618 -114.05756 7667 ft 228 kts 68°
2026-04-25 01:32 50.89304 -114.03787 7333 ft 192 kts 27°
2026-04-25 01:32 50.90500 -114.03192 6874 ft 176 kts 358°
2026-04-25 01:32 50.91696 -114.02916 6557 ft 168 kts
2026-04-25 01:32 50.92797 -114.02608 6361 ft 153 kts
2026-04-25 01:33 50.93808 -114.02396 6163 ft 141 kts
2026-04-25 01:33 50.94751 -114.02248 6032 ft 133 kts 359°
2026-04-25 01:33 50.95617 -114.02183 5947 ft 114 kts 358°
2026-04-25 01:33 50.96375 -114.02156 5794 ft 104 kts 357°
2026-04-25 01:34 50.97093 -114.02145 5703 ft 104 kts 357°
2026-04-25 01:34 50.97840 -114.02139 5611 ft 107 kts 357°
2026-04-25 01:34 50.98581 -114.02136 5502 ft 104 kts 356°
2026-04-25 01:34 50.99293 -114.02135 5398 ft 104 kts 357°
2026-04-25 01:35 51.00048 -114.02135 5352 ft 111 kts 357°
2026-04-25 01:35 51.00813 -114.02135 5303 ft 108 kts 356°
2026-04-25 01:35 51.01528 -114.02134 5295 ft 101 kts 356°
2026-04-25 01:35 51.02251 -114.02135 5198 ft 107 kts 356°
2026-04-25 01:36 51.03005 -114.02135 5049 ft 107 kts 357°
2026-04-25 01:36 51.03735 -114.02134 4908 ft 102 kts 357°
2026-04-25 01:36 51.04439 -114.02133 4765 ft 101 kts 356°
2026-04-25 01:36 51.05152 -114.02134 4617 ft 102 kts 357°
2026-04-25 01:37 51.05891 -114.02135 4424 ft 106 kts 357°
2026-04-25 01:37 51.06632 -114.02132 4247 ft 104 kts 357°
2026-04-25 01:37 51.07368 -114.02132 4040 ft 107 kts 358°
2026-04-25 01:37 51.08129 -114.02127 3930 ft 116 kts 358°
2026-04-25 01:38 51.08969 -114.02143 3812 ft 124 kts 357°
2026-04-25 01:38 51.09816 -114.02142 3614 ft 119 kts
2026-04-25 01:38 51.10586 -114.02139 3558 ft 99 kts
2026-04-25 01:38 51.11142 -114.02137 3560 ft 66 kts
2026-04-25 01:39 51.11505 -114.02130 3553 ft 28 kts
2026-04-25 01:39 51.11653 -114.02030 3554 ft 19 kts 31°
2026-04-25 01:39 51.11742 -114.01942 3557 ft 10 kts 43°
2026-04-25 01:39 51.11757 -114.01896 3558 ft 2 kts 77°
2026-04-25 01:40 51.11764 -114.01841 3556 ft 12 kts 70°
2026-04-25 01:40 51.11847 -114.01795 3558 ft 13 kts 358°
2026-04-25 01:40 51.11934 -114.01796 3559 ft 13 kts 360°
2026-04-25 01:40 51.12037 -114.01796 3559 ft 17 kts
2026-04-25 01:41 51.12169 -114.01797 3558 ft 21 kts 360°
2026-04-25 01:41 51.12322 -114.01797 3557 ft 23 kts
2026-04-25 01:41 51.12485 -114.01794 3558 ft 21 kts
2026-04-25 01:41 51.12619 -114.01796 3558 ft 15 kts 359°
2026-04-25 01:42 51.12734 -114.01795 3556 ft 19 kts
2026-04-25 01:42 51.12875 -114.01794 3558 ft 22 kts 360°
2026-04-25 01:42 51.13034 -114.01795 3558 ft 23 kts 359°
2026-04-25 01:42 51.13116 -114.01724 3555 ft 11 kts 55°
2026-04-25 01:43 51.13192 -114.01668 3555 ft 10 kts 11°
2026-04-25 01:43 51.13225 -114.01615 3558 ft 6 kts 55°
2026-04-25 01:43 51.13249 -114.01562 3557 ft 1 kts 55°